This demonstration page uses our WeatherBlox Daily Observations layout. Learn more.

41.55636, -103.73856

Hourly Observations for May 17, 2017

Temp ( °F °C ) Dew Point ( °F °C ) Humidity (%) Winds ( mph kmh ) Pressure ( in mb ) Visibility ( mi km ) Precip ( " mm )
12:53 am 00:53 Mostly Clear 52 11.1 46 7.8 80 80 ESE 10 17 29.5 999 10 16.0934 0 0
1:53 am 01:53 Clear 50 10 46 7.8 86 86 Calm 29.53 1000 10 16.0934 0 0
2:53 am 02:53 Clear 49 9.4 45 7.2 86 86 NNE 6 9 29.53 1000 10 16.0934 0 0
3:53 am 03:53 Clear 48 8.9 45 7.2 89 89 NW 3 6 29.48 998 10 16.0934 0 0
4:53 am 04:53 Clear 48 8.9 45 7.2 89 89 Calm 29.52 1000 10 16.0934 0 0
5:53 am 05:53 Sunny 48 8.9 45 7.2 89 89 ENE 6 9 29.52 1000 10 16.0934 0 0
6:53 am 06:53 Sunny 48 8.9 45 7.2 89 89 NNW 3 6 29.5 999 10 16.0934 0 0
7:53 am 07:53 Sunny 50 10 46 7.8 86 86 NE 8 13 29.5 999 10 16.0934 0 0
8:53 am 08:53 Mostly Cloudy 55 12.8 47 8.3 74 74 E 5 7 29.48 998 10 16.0934 0 0
9:45 am 09:45 Partly Cloudy 57 13.9 47 8.3 69 69 Calm 29.44 997 10 16.0934 0 0
9:53 am 09:53 Partly Cloudy 58 14.4 47 8.3 67 67 VRB 6 9 29.48 998 10 16.0934 0 0
10:53 am 10:53 Sunny 61 16.1 46 7.8 58 58 NE 7 11 29.46 998 10 16.0934 0 0
11:53 am 11:53 Mostly Cloudy 61 16.1 47 8.3 60 60 NE 16 26 29.47 998 10 16.0934 0 0
12:53 pm 12:53 Mostly Sunny 62 16.7 48 8.9 60 60 ENE 22 35 29.49 999 10 16.0934 0 0
1:53 pm 13:53 Mostly Sunny 64 17.8 47 8.3 54 54 NE 20 31 29.5 999 10 16.0934 0 0
2:53 pm 14:53 Mostly Sunny 63 17.2 45 7.2 52 52 NE 20 31 29.51 999 10 16.0934 0 0
3:53 pm 15:53 Partly Cloudy 64 17.8 45 7.2 50 50 NE 16 26 29.52 1000 10 16.0934 0 0
4:49 pm 16:49 Cloudy with Nearby Thunderstorms 57 14 45 7 63 63 ENE 18 30 29.56 1001 10 16.0934 0 0
4:50 pm 16:50 Cloudy with Nearby Thunderstorms 58 14.4 45 7.2 62 62 ENE 17 28 29.6 1003 10 16.0934 0 0
5:24 pm 17:24 Cloudy with Thunderstorms 55 13 45 7 67 67 NNE 20 31 29.59 1002 10 16.0934 0 0
5:43 pm 17:43 Cloudy with Nearby Thunderstorms 53 11.7 45 7.2 74 74 NNE 21 33 29.62 1003 10 16.0934 0 0.0254
5:50 pm 17:50 Cloudy with Light Rain 54 12 45 7 72 72 NNE 18 30 29.62 1003 10 16.0934 0 0
5:53 pm 17:53 Cloudy with Light Rain 53 11.7 46 7.8 77 77 NNE 21 33 29.67 1005 10 16.0934 0.01 0.254
6:42 pm 18:42 Cloudy with Light Rain 52 11 46 8 82 82 N 14 22 29.71 1006 10 16.0934 0 0
6:53 pm 18:53 Cloudy with Light Rain 50 10 46 7.8 86 86 NNE 13 20 29.73 1007 10 16.0934 0.03 0.762
7:53 pm 19:53 Cloudy 50 10 46 7.8 86 86 NE 13 20 29.75 1007 10 16.0934 0 0.0254
8:53 pm 20:53 Mostly Cloudy 49 9.4 44 6.7 83 83 NNE 15 24 29.76 1008 10 16.0934 0 0.0254
9:11 pm 21:11 Cloudy 49 9.4 44 6.7 83 83 NE 17 28 29.8 1009 10 16.0934 0 0
9:53 pm 21:53 Cloudy 49 9.4 44 6.7 83 83 NE 18 30 29.77 1008 10 16.0934 0 0
10:00 pm 22:00 Cloudy 49 9.4 44 6.7 83 83 NE 17 28 29.8 1009 10 16.0934 0 0
10:49 pm 22:49 Cloudy 48 9 45 7 87 87 ENE 14 22 29.83 1010 10 16.0934 0 0
10:53 pm 22:53 Cloudy 49 9.4 44 6.7 83 83 ENE 13 20 29.8 1009 10 16.0934 0 0
11:53 pm 23:53 Cloudy 48 8.9 43 6.1 83 83 ENE 17 28 29.79 1009 10 16.0934 0 0.0254

Powered by AerisWeather